When you browse on this site, cookies collect data to enhance your experience and personalize the content and advertising you see.
Visit our Privacy Policy to learn more. By continuing to use the site, you agree to this use of cookies and data.
  • In Romania
  • List of Countries
  • For 7 days
  • Water Temperature
  • Weather Map
  • Weather Widgets
  • user-avatar
    Login

    Hourly Weather Salgotarjan

    Today, 22 October, Tuesday

    Time Temperature Precipitation Wind Pressure Humidity
    00:00 +14°C° 0 mm 1 mps 735 mmHg 84%
    01:00 +14°C° 0 mm 1 mps 736 mmHg 86%
    02:00 +14°C° 0 mm 1 mps 736 mmHg 86%
    03:00 +14°C° 0 mm 1 mps 735 mmHg 87%
    04:00 +14°C° 0 mm 1 mps 735 mmHg 88%
    05:00 +14°C° 0 mm 1 mps 736 mmHg 88%
    06:00 +14°C° 0 mm 1 mps 736 mmHg 87%
    07:00 +14°C° 0 mm 1 mps 736 mmHg 82%
    08:00 +16°C° 0 mm 1 mps 737 mmHg 74%
    09:00 +19°C° 0 mm 1 mps 737 mmHg 67%
    10:00 +21°C° 0 mm 1 mps 737 mmHg 59%
    11:00 +22°C° 0 mm 1 mps 737 mmHg 56%
    12:00 +23°C° 0 mm 1 mps 737 mmHg 52%
    13:00 +24°C° 0 mm 1 mps 737 mmHg 49%
    14:00 +23°C° 0 mm 1 mps 737 mmHg 53%
    15:00 +22°C° 0 mm 1 mps 736 mmHg 57%
    16:00 +21°C° 0 mm 1 mps 736 mmHg 61%
    17:00 +20°C° 0 mm 1 mps 736 mmHg 65%
    18:00 +16°C° 0 mm 0 mps 736 mmHg 69%
    19:00 +15°C° 0 mm 0 mps 736 mmHg 73%
    20:00 +15°C° 0 mm 0 mps 736 mmHg 75%
    21:00 +14°C° 0 mm 0 mps 736 mmHg 76%
    22:00 +14°C° 0 mm 0 mps 736 mmHg 77%
    23:00 +14°C° 0 mm 0 mps 736 mmHg 79%

    Tomorrow, 23 October, Wednesday

    Time Temperature Precipitation Wind Pressure Humidity
    00:00 +13°C° 0 mm 0 mps 736 mmHg 80%
    01:00 +13°C° 0 mm 0 mps 736 mmHg 81%
    02:00 +13°C° 0 mm 0 mps 736 mmHg 82%
    03:00 +13°C° 0 mm 0 mps 736 mmHg 83%
    04:00 +12°C° 0 mm 0 mps 735 mmHg 84%
    05:00 +12°C° 0 mm 0 mps 735 mmHg 84%
    06:00 +12°C° 0 mm 0 mps 736 mmHg 83%
    07:00 +13°C° 0 mm 0 mps 736 mmHg 83%
    08:00 +16°C° 0 mm 1 mps 736 mmHg 74%
    09:00 +19°C° 0 mm 1 mps 736 mmHg 65%
    10:00 +21°C° 0 mm 1 mps 736 mmHg 57%
    11:00 +22°C° 0 mm 1 mps 736 mmHg 53%
    12:00 +23°C° 0 mm 1 mps 735 mmHg 49%
    13:00 +24°C° 0 mm 2 mps 735 mmHg 46%
    14:00 +23°C° 0 mm 1 mps 735 mmHg 50%
    15:00 +22°C° 0 mm 1 mps 734 mmHg 54%
    16:00 +21°C° 0 mm 1 mps 734 mmHg 59%
    17:00 +19°C° 0 mm 1 mps 734 mmHg 63%
    18:00 +18°C° 0 mm 1 mps 733 mmHg 68%
    19:00 +16°C° 0 mm 1 mps 733 mmHg 72%
    20:00 +15°C° 0 mm 1 mps 733 mmHg 74%
    21:00 +15°C° 0 mm 1 mps 733 mmHg 76%
    22:00 +14°C° 0 mm 1 mps 733 mmHg 77%
    23:00 +14°C° 0 mm 1 mps 733 mmHg 79%

    Day after tomorrow, 24 October, Thursday

    Time Temperature Precipitation Wind Pressure Humidity
    00:00 +14°C° 0 mm 1 mps 733 mmHg 80%
    01:00 +13°C° 0 mm 1 mps 733 mmHg 82%
    02:00 +13°C° 0 mm 1 mps 732 mmHg 83%
    03:00 +13°C° 0 mm 1 mps 732 mmHg 84%
    04:00 +12°C° 0 mm 1 mps 732 mmHg 85%
    05:00 +12°C° 0 mm 1 mps 732 mmHg 84%
    06:00 +12°C° 0 mm 1 mps 732 mmHg 84%
    07:00 +12°C° 0 mm 1 mps 732 mmHg 83%
    08:00 +15°C° 0 mm 1 mps 732 mmHg 73%
    09:00 +18°C° 0 mm 1 mps 732 mmHg 63%
    10:00 +19°C° 0 mm 2 mps 732 mmHg 53%
    11:00 +20°C° 0 mm 2 mps 732 mmHg 49%
    12:00 +21°C° 0 mm 2 mps 731 mmHg 45%
    13:00 +23°C° 0 mm 2 mps 731 mmHg 41%
    14:00 +21°C° 0 mm 2 mps 731 mmHg 44%
    15:00 +20°C° 0 mm 2 mps 731 mmHg 47%
    16:00 +20°C° 0 mm 1 mps 730 mmHg 50%
    17:00 +19°C° 0 mm 1 mps 730 mmHg 53%
    18:00 +16°C° 0 mm 1 mps 730 mmHg 55%
    19:00 +15°C° 0 mm 1 mps 730 mmHg 58%
    20:00 +15°C° 0 mm 1 mps 730 mmHg 59%
    21:00 +14°C° 0 mm 1 mps 731 mmHg 61%
    22:00 +14°C° 0 mm 1 mps 731 mmHg 62%
    23:00 +13°C° 0 mm 1 mps 731 mmHg 64%

    25 October, Friday

    Time Temperature Precipitation Wind Pressure Humidity
    00:00 +12°C° 0 mm 0 mps 731 mmHg 65%
    01:00 +11°C° 0 mm 0 mps 731 mmHg 66%
    02:00 +11°C° 0 mm 0 mps 731 mmHg 67%
    03:00 +11°C° 0 mm 0 mps 731 mmHg 67%
    04:00 +11°C° 0 mm 0 mps 731 mmHg 68%
    05:00 +11°C° 0 mm 0 mps 732 mmHg 68%
    06:00 +11°C° 0 mm 0 mps 732 mmHg 68%
    07:00 +11°C° 0 mm 0 mps 733 mmHg 68%
    08:00 +13°C° 0 mm 0 mps 733 mmHg 62%
    09:00 +15°C° 0 mm 0 mps 734 mmHg 55%
    10:00 +20°C° 0 mm 1 mps 734 mmHg 48%
    11:00 +21°C° 0 mm 1 mps 734 mmHg 46%
    12:00 +22°C° 0 mm 1 mps 735 mmHg 44%
    13:00 +23°C° 0 mm 1 mps 735 mmHg 43%
    14:00 +21°C° 0 mm 1 mps 734 mmHg 47%
    15:00 +20°C° 0 mm 1 mps 734 mmHg 51%
    16:00 +17°C° 0 mm 0 mps 734 mmHg 56%
    17:00 +18°C° 0 mm 1 mps 734 mmHg 59%
    18:00 +16°C° 0 mm 1 mps 734 mmHg 63%
    19:00 +15°C° 0 mm 1 mps 735 mmHg 67%
    20:00 +14°C° 0 mm 1 mps 735 mmHg 68%
    21:00 +14°C° 0 mm 1 mps 735 mmHg 69%
    22:00 +13°C° 0 mm 1 mps 735 mmHg 70%
    23:00 +13°C° 0 mm 1 mps 735 mmHg 73%

    26 October, Saturday

    Time Temperature Precipitation Wind Pressure Humidity
    00:00 +12°C° 0 mm 1 mps 735 mmHg 75%
    01:00 +12°C° 0 mm 1 mps 735 mmHg 77%
    02:00 +10°C° 0 mm 0 mps 734 mmHg 79%
    03:00 +10°C° 0 mm 0 mps 734 mmHg 80%
    04:00 +10°C° 0 mm 0 mps 734 mmHg 82%
    05:00 +10°C° 0 mm 0 mps 734 mmHg 82%
    06:00 +10°C° 0 mm 0 mps 734 mmHg 82%
    07:00 +10°C° 0 mm 0 mps 734 mmHg 83%
    08:00 +12°C° 0 mm 0 mps 735 mmHg 75%
    09:00 +15°C° 0 mm 1 mps 735 mmHg 67%
    10:00 +18°C° 0 mm 1 mps 735 mmHg 59%
    11:00 +19°C° 0 mm 1 mps 735 mmHg 56%
    12:00 +19°C° 0 mm 2 mps 735 mmHg 54%
    13:00 +20°C° 0 mm 2 mps 734 mmHg 51%
    14:00 +19°C° 0 mm 2 mps 734 mmHg 54%
    15:00 +18°C° 0 mm 2 mps 733 mmHg 57%
    16:00 +18°C° 0 mm 1 mps 733 mmHg 60%
    17:00 +16°C° 0 mm 1 mps 733 mmHg 63%
    18:00 +15°C° 0 mm 1 mps 733 mmHg 67%
    19:00 +14°C° 0 mm 1 mps 733 mmHg 70%
    20:00 +13°C° 0 mm 1 mps 733 mmHg 72%
    21:00 +13°C° 0 mm 1 mps 733 mmHg 73%
    22:00 +13°C° 0 mm 1 mps 733 mmHg 75%
    23:00 +12°C° 0 mm 1 mps 733 mmHg 76%

    27 October, Sunday

    Time Temperature Precipitation Wind Pressure Humidity
    00:00 +12°C° 0 mm 1 mps 733 mmHg 77%
    01:00 +12°C° 0 mm 1 mps 733 mmHg 79%
    02:00 +12°C° 0 mm 1 mps 733 mmHg 80%
    03:00 +11°C° 0 mm 1 mps 733 mmHg 81%
    04:00 +11°C° 0 mm 1 mps 733 mmHg 82%
    05:00 +11°C° 0 mm 1 mps 733 mmHg 83%
    06:00 +11°C° 0 mm 1 mps 733 mmHg 83%
    07:00 +11°C° 0 mm 1 mps 733 mmHg 84%
    08:00 +13°C° 0 mm 2 mps 734 mmHg 76%
    09:00 +15°C° 0 mm 2 mps 734 mmHg 68%
    10:00 +17°C° 0 mm 3 mps 735 mmHg 60%
    11:00 +17°C° 0 mm 4 mps 735 mmHg 57%
    12:00 +18°C° 0 mm 4 mps 735 mmHg 53%
    13:00 +19°C° 0 mm 5 mps 735 mmHg 49%
    14:00 +16°C° 0 mm 5 mps 735 mmHg 50%
    15:00 +15°C° 0 mm 5 mps 734 mmHg 50%
    16:00 +14°C° 0 mm 4 mps 734 mmHg 50%
    17:00 +12°C° 0 mm 4 mps 735 mmHg 51%
    18:00 +11°C° 0 mm 3 mps 735 mmHg 52%
    19:00 +10°C° 0 mm 3 mps 735 mmHg 52%
    20:00 +9°C° 0 mm 2 mps 735 mmHg 53%
    21:00 +8°C° 0 mm 2 mps 735 mmHg 54%
    22:00 +7°C° 0 mm 2 mps 736 mmHg 55%
    23:00 +8°C° 0 mm 1 mps 735 mmHg 56%

    28 October, Monday

    Time Temperature Precipitation Wind Pressure Humidity
    00:00 +7°C° 0 mm 1 mps 735 mmHg 56%
    01:00 +7°C° 0 mm 1 mps 735 mmHg 56%
    02:00 +7°C° 0 mm 1 mps 735 mmHg 56%
    03:00 +5°C° 0 mm 0 mps 735 mmHg 56%
    04:00 +5°C° 0 mm 0 mps 734 mmHg 57%
    05:00 +5°C° 0 mm 0 mps 734 mmHg 56%
    06:00 +6°C° 0 mm 0 mps 734 mmHg 55%
    07:00 +6°C° 0 mm 0 mps 734 mmHg 54%
    08:00 +7°C° 0.1 mm 0 mps 734 mmHg 56%
    09:00 +8°C° 0.1 mm 1 mps 734 mmHg 57%
    10:00 +8°C° 0.1 mm 1 mps 734 mmHg 58%
    11:00 +8°C° 0.1 mm 1 mps 734 mmHg 63%
    12:00 +8°C° 0.1 mm 1 mps 734 mmHg 67%
    13:00 +8°C° 0.1 mm 1 mps 734 mmHg 71%
    14:00 +7°C° 0.2 mm 1 mps 733 mmHg 75%
    15:00 +6°C° 0.2 mm 2 mps 733 mmHg 79%
    16:00 +6°C° 0.2 mm 2 mps 732 mmHg 83%
    17:00 +6°C° 0 mm 2 mps 732 mmHg 84%
    18:00 +6°C° 0 mm 2 mps 732 mmHg 84%
    19:00 +7°C° 0 mm 1 mps 732 mmHg 84%
    20:00 +6°C° 0 mm 1 mps 733 mmHg 85%
    21:00 +6°C° 0 mm 1 mps 733 mmHg 87%
    22:00 +5°C° 0 mm 1 mps 733 mmHg 88%
    23:00 +5°C° 0 mm 1 mps 733 mmHg 89%
    Show more